(543082) = 2013 SQ26

Discovered at Catalina on 2013-09-14 by CSS.

Orbit

Orbit type: Main Belt

Note: WebGL enabled browser required.

epoch2022-01-21.0
epoch JD2459600.5
perihelion date2019-07-15.73339
perihelion JD2458680.23339
argument of perihelion (°)13.50234
ascending node (°)27.92245
inclination (°)16.30766
eccentricity0.2681343
perihelion distance (AU)2.3129611
Tisserand w.r.t. Jupiter3.1
ΔV w.r.t. Earth (km/sec)10.8
semimajor axis (AU)3.1603628
mean anomaly (°)161.44035
mean daily motion (°/day)0.17542780
aphelion distance (AU)4.008
period (years)5.62
P-vector [x]0.75422365
P-vector [y]0.57334553
P-vector [z]0.32003374
Q-vector [x]-0.64331731
Q-vector [y]0.54763048
Q-vector [z]0.53501747
absolute magnitude16.21
phase slope0.15
uncertainty0
referenceMPO 701736
observations used115
oppositions9
arc length (days)9339
first opposition used1996
last opposition used2022
residual rms (arc-secs)0.84
perturbers coarse indicatorM-v
perturbers precise indicator003Ek
first observation date used1996-10-13.0
last observation date used2022-05-09.0
computer namePan

Observations

117 total observations over interval: 1996 10 13.59951 – 2022 05 09.395810
These data are available for download (format description).

Date (UT) J2000 RA J2000 Dec Magn Location Ref
1996 10 13.59951 02 00 40.99 +11 43 04.9 18.4 R 566 – Haleakala-NEAT/GEODSS MPS 686162
1996 10 13.60791 02 00 40.58 +11 43 06.2 18.0 R 566 – Haleakala-NEAT/GEODSS MPS 686162
1996 10 13.61641 02 00 39.97 +11 43 07.7 18.1 R 566 – Haleakala-NEAT/GEODSS MPS 686162
2005 04 11.35628 14 23 47.89 -16 57 34.9 21.2 R 695 – Kitt Peak MPS 493546
2005 04 11.43492 14 23 44.29 -16 57 30.3   695 – Kitt Peak MPS 493546
2009 01 30.34526 08 25 22.22 +44 19 16.3 20.6 V 703 – Catalina Sky Survey MPS 493546
2009 01 30.35630 08 25 21.50 +44 19 16.2 20.6 V 703 – Catalina Sky Survey MPS 493546
2009 01 30.36735 08 25 20.64 +44 19 16.6 20.6 V 703 – Catalina Sky Survey MPS 493546
2009 01 30.37840 08 25 19.88 +44 19 16.8 20.5 V 703 – Catalina Sky Survey MPS 493546
2013 09 14.34333 02 21 40.05 +09 48 32.9 19.9 V 703 – Catalina Sky Survey MPS 482515
2013 09 14.35109 02 21 39.92 +09 48 35.3 19.6 V 703 – Catalina Sky Survey MPS 482515
2013 09 14.35900 02 21 39.81 +09 48 37.8 19.9 V 703 – Catalina Sky Survey MPS 482515
2013 09 14.36682 02 21 39.72 +09 48 38.2 19.4 V 703 – Catalina Sky Survey MPS 482515
2013 09 25.36701 02 17 19.26 +10 46 03.3 19.6 V 703 – Catalina Sky Survey MPS 482515
2013 09 25.37539 02 17 18.94 +10 46 05.9 19.3 V 703 – Catalina Sky Survey MPS 482515
2013 09 25.38380 02 17 18.54 +10 46 08.2 19.8 V 703 – Catalina Sky Survey MPS 482515
2013 09 25.39218 02 17 18.27 +10 46 10.2 19.4 V 703 – Catalina Sky Survey MPS 482515
2013 09 28.41139 02 15 29.01 +11 00 58.1 19.4 r I41 – Palomar Mountain--ZTF MPS 478898
2013 09 28.44454 02 15 27.64 +11 01 07.7 19.5 r I41 – Palomar Mountain--ZTF MPS 478898
2013 09 28.47749 02 15 26.31 +11 01 17.2 19.8 r I41 – Palomar Mountain--ZTF MPS 478899
2013 09 29.41556 02 14 49.20 +11 05 47.6 19.6 r I41 – Palomar Mountain--ZTF MPS 478899
2013 09 29.44806 02 14 47.83 +11 05 57.0 19.5 r I41 – Palomar Mountain--ZTF MPS 478899
2013 10 14.90422 02 01 33.87 +12 14 24.3 18.7   J43 – Oukaimeden Observatory, Marrakech MPS 482515
2013 10 14.91708 02 01 33.10 +12 14 27.6 19.0   J43 – Oukaimeden Observatory, Marrakech MPS 482515
2013 10 14.92983 02 01 32.31 +12 14 30.7 19.1   J43 – Oukaimeden Observatory, Marrakech MPS 482515
2013 10 14.94255 02 01 31.51 +12 14 33.9 19.2   J43 – Oukaimeden Observatory, Marrakech MPS 482515
2013 10 15.95690 02 00 30.27 +12 18 41.6 19.3   J43 – Oukaimeden Observatory, Marrakech MPS 482515
2013 10 15.96965 02 00 29.45 +12 18 45.1 19.4   J43 – Oukaimeden Observatory, Marrakech MPS 482515
2013 10 15.98246 02 00 28.67 +12 18 48.0 19.6   J43 – Oukaimeden Observatory, Marrakech MPS 482515
2013 10 15.99518 02 00 27.84 +12 18 51.5 19.5   J43 – Oukaimeden Observatory, Marrakech MPS 482515
2013 10 23.35159 01 52 47.37 +12 47 36.5 18.3 V G96 – Mt. Lemmon Survey MPS 485370
2013 10 23.35749 01 52 46.98 +12 47 38.0 18.3 V G96 – Mt. Lemmon Survey MPS 485370
2013 10 23.36343 01 52 46.59 +12 47 39.2 18.4 V G96 – Mt. Lemmon Survey MPS 485370
2013 10 23.36930 01 52 46.19 +12 47 40.7 18.4 V G96 – Mt. Lemmon Survey MPS 485370
2013 10 24.13624 01 51 57.84 +12 50 33.4 18.6 r I41 – Palomar Mountain--ZTF MPS 482515
2013 10 24.16064 01 51 56.25 +12 50 39.2 18.7 r I41 – Palomar Mountain--ZTF MPS 482515
2013 10 24.20618 01 51 53.27 +12 50 49.7 18.8 r I41 – Palomar Mountain--ZTF MPS 482515
2013 10 25.13401 01 50 54.23 +12 54 17.7 18.7 r I41 – Palomar Mountain--ZTF MPS 483775
2013 10 25.17253 01 50 51.74 +12 54 26.5 18.9 r I41 – Palomar Mountain--ZTF MPS 483775
2013 10 25.19814 01 50 50.06 +12 54 32.5 18.8 r I41 – Palomar Mountain--ZTF MPS 483775
2013 10 26.15888 01 49 48.96 +12 58 06.2 18.7 r I41 – Palomar Mountain--ZTF MPS 483775
2013 10 26.19263 01 49 46.75 +12 58 14.0 18.8 r I41 – Palomar Mountain--ZTF MPS 483775
2013 10 27.28307 01 48 37.30 +13 02 15.6 18.8 r I41 – Palomar Mountain--ZTF MPS 483775
2013 10 27.32846 01 48 34.31 +13 02 25.6 18.8 r I41 – Palomar Mountain--ZTF MPS 483775
2013 10 27.35378 01 48 32.65 +13 02 31.1 19.0 r I41 – Palomar Mountain--ZTF MPS 483775
2013 10 30.25783 01 45 30.09 +13 13 06.1 18.7 V 703 – Catalina Sky Survey MPS 483775
2013 10 30.26300 01 45 29.77 +13 13 07.3 18.7 V 703 – Catalina Sky Survey MPS 483775
2013 10 30.26815 01 45 29.43 +13 13 08.3 18.7 V 703 – Catalina Sky Survey MPS 483775
2013 10 30.27332 01 45 29.09 +13 13 09.4 18.9 V 703 – Catalina Sky Survey MPS 483775
2013 10 31.12871 01 44 36.28 +13 16 13.7 19.1 r I41 – Palomar Mountain--ZTF MPS 483775
2013 10 31.19588 01 44 32.03 +13 16 28.6 19.0 r I41 – Palomar Mountain--ZTF MPS 483775
2013 10 31.22692 01 44 30.04 +13 16 35.4 18.9 r I41 – Palomar Mountain--ZTF MPS 483775
2013 11 01.13248 01 43 34.47 +13 19 50.2 18.9 r I41 – Palomar Mountain--ZTF MPS 485370
2013 11 01.15699 01 43 32.94 +13 19 55.6 18.9 r I41 – Palomar Mountain--ZTF MPS 485370
2013 11 01.20300 01 43 30.04 +13 20 05.8 18.8 r I41 – Palomar Mountain--ZTF MPS 485370
2013 11 02.11152 01 42 34.85 +13 23 20.7 18.9 r I41 – Palomar Mountain--ZTF MPS 485370
2013 11 02.13637 01 42 33.32 +13 23 26.1 19.1 r I41 – Palomar Mountain--ZTF MPS 485370
2013 11 02.16808 01 42 31.36 +13 23 33.1 19.1 r I41 – Palomar Mountain--ZTF MPS 485370
2013 11 03.10865 01 41 34.83 +13 26 54.5 19.1 r I41 – Palomar Mountain--ZTF MPS 485370
2013 11 03.13336 01 41 33.31 +13 27 00.2 19.2 r I41 – Palomar Mountain--ZTF MPS 485370
2013 11 03.15861 01 41 31.77 +13 27 05.6 19.0 r I41 – Palomar Mountain--ZTF MPS 485370
2013 11 08.27446 01 36 38.15 +13 45 23.9 19.3 V 703 – Catalina Sky Survey MPS 485370
2013 11 08.28306 01 36 37.65 +13 45 25.5 19.2 V 703 – Catalina Sky Survey MPS 485370
2013 11 08.29166 01 36 37.13 +13 45 28.1 18.7 V 703 – Catalina Sky Survey MPS 485370
2013 12 26.17750 01 25 49.89 +17 32 42.6 20.1 V 703 – Catalina Sky Survey MPS 492088
2013 12 26.18458 01 25 50.06 +17 32 47.0 20.4 V 703 – Catalina Sky Survey MPS 492088
2013 12 26.19165 01 25 50.18 +17 32 47.9 20.8 V 703 – Catalina Sky Survey MPS 492088
2013 12 26.19872 01 25 50.44 +17 32 49.3 20.5 V 703 – Catalina Sky Survey MPS 492088
2016 05 09.18183 13 14 25.74 -07 30 40.8 21.5 V G96 – Mt. Lemmon Survey MPS 708346
2016 05 09.18634 13 14 25.57 -07 30 41.4 21.2 V G96 – Mt. Lemmon Survey MPS 708346
2016 05 09.19086 13 14 25.42 -07 30 40.9   G96 – Mt. Lemmon Survey MPS 708346
2016 05 09.19538 13 14 25.25 -07 30 39.7 21.8 V G96 – Mt. Lemmon Survey MPS 708346
2018 07 10.48804 21 46 25.681 -38 05 50.83 20.7 w F51 – Pan-STARRS 1, Haleakala MPS 904672
2018 07 10.49709 21 46 25.379 -38 05 54.30 20.6 w F51 – Pan-STARRS 1, Haleakala MPS 904672
2018 07 10.50614 21 46 25.087 -38 05 57.82 20.5 w F51 – Pan-STARRS 1, Haleakala MPS 904672
2018 07 10.51517 21 46 24.792 -38 06 01.40 20.5 w F51 – Pan-STARRS 1, Haleakala MPS 904672
2019 10 08.459980 06 06 45.82 +36 09 40.9 20.60 r I41 – Palomar Mountain--ZTF MPS 1057287
2019 10 08.460890 06 06 45.87 +36 09 41.8 20.48 r I41 – Palomar Mountain--ZTF MPS 1057287
2019 10 08.533530 06 06 49.96 +36 10 21.2 20.72 g I41 – Palomar Mountain--ZTF MPS 1057287
2019 10 09.414090 06 07 40.58 +36 18 27.1 20.43 r I41 – Palomar Mountain--ZTF MPS 1057287
2019 10 09.492600 06 07 44.89 +36 19 11.2 20.80 g I41 – Palomar Mountain--ZTF MPS 1057287
2019 11 18.46157 06 19 22.81 +42 56 41.4 19.7 G G96 – Mt. Lemmon Survey MPS 1081676
2019 11 18.46815 06 19 22.62 +42 56 45.3 19.6 G G96 – Mt. Lemmon Survey MPS 1081676
2019 11 18.47473 06 19 22.43 +42 56 48.8 19.8 G G96 – Mt. Lemmon Survey MPS 1081676
2019 11 18.48132 06 19 22.23 +42 56 52.8 19.6 G G96 – Mt. Lemmon Survey MPS 1081676
2019 11 29.53990 06 11 50.273 +44 37 28.46 20.0 w F52 – Pan-STARRS 2, Haleakala MPS 1087366
2019 11 29.55234 06 11 49.571 +44 37 34.61 19.9 w F52 – Pan-STARRS 2, Haleakala MPS 1087366
2019 11 29.56475 06 11 48.879 +44 37 40.56 19.8 w F52 – Pan-STARRS 2, Haleakala MPS 1087366
2019 12 08.41933 06 02 50.998 +45 41 39.57 19.6 i F52 – Pan-STARRS 2, Haleakala MPS 1095765
2019 12 08.43189 06 02 50.114 +45 41 44.37 19.5 i F52 – Pan-STARRS 2, Haleakala MPS 1095765
2019 12 08.44448 06 02 49.224 +45 41 49.12 19.5 i F52 – Pan-STARRS 2, Haleakala MPS 1095765
2019 12 08.45711 06 02 48.320 +45 41 53.85 19.7 i F52 – Pan-STARRS 2, Haleakala MPS 1095765
2021 02 07.48934 12 27 01.606 +11 13 46.12 21.7 w F51 – Pan-STARRS 1, Haleakala MPS 1372382
2021 02 07.51030 12 27 01.095 +11 13 49.94 21.5 w F51 – Pan-STARRS 1, Haleakala MPS 1372382
2021 02 07.52081 12 27 00.841 +11 13 51.75 21.4 w F51 – Pan-STARRS 1, Haleakala MPS 1372382
2021 02 22.578845 12 19 06.874 +12 04 26.23 21.23 w F51 – Pan-STARRS 1, Haleakala MPS 1372382
2021 02 22.601622 12 19 05.953 +12 04 30.97 21.34 w F51 – Pan-STARRS 1, Haleakala MPS 1372382
2021 02 22.613021 12 19 05.496 +12 04 33.56 21.43 w F51 – Pan-STARRS 1, Haleakala MPS 1372382
2021 03 06.360429 12 10 31.53 +12 45 07.1 21.36 G G96 – Mt. Lemmon Survey MPS 1372382
2021 03 06.365601 12 10 31.27 +12 45 08.3 22.44 G G96 – Mt. Lemmon Survey MPS 1372382
2021 03 06.370754 12 10 31.07 +12 45 08.7 22.03 G G96 – Mt. Lemmon Survey MPS 1372382
2021 03 06.375914 12 10 30.78 +12 45 10.4 21.17 G G96 – Mt. Lemmon Survey MPS 1372382
2021 03 19.325563 11 59 47.59 +13 21 44.1 21.12 G G96 – Mt. Lemmon Survey MPS 1381239
2021 03 19.330796 11 59 47.32 +13 21 44.7 21.45 G G96 – Mt. Lemmon Survey MPS 1381239
2021 03 19.336033 11 59 47.04 +13 21 45.4 21.58 G G96 – Mt. Lemmon Survey MPS 1381239
2021 03 19.341298 11 59 46.73 +13 21 45.8   G96 – Mt. Lemmon Survey MPS 1381239
2021 04 07.235336 11 44 48.12 +13 44 03.7 22.16 G G96 – Mt. Lemmon Survey MPS 1400905
2021 04 07.241040 11 44 47.84 +13 44 03.6 21.20 G G96 – Mt. Lemmon Survey MPS 1400905
2021 04 07.246743 11 44 47.62 +13 44 03.9 21.89 G G96 – Mt. Lemmon Survey MPS 1400905
2021 04 07.252446 11 44 47.31 +13 44 03.7 21.61 G G96 – Mt. Lemmon Survey MPS 1400905
2021 04 15.257306 11 39 34.313 +13 39 52.96 21.54 w F51 – Pan-STARRS 1, Haleakala MPS 1400905
2021 04 15.269054 11 39 33.873 +13 39 52.29 21.61 w F51 – Pan-STARRS 1, Haleakala MPS 1400905
2021 04 15.280796 11 39 33.465 +13 39 51.40 21.44 w F51 – Pan-STARRS 1, Haleakala MPS 1400905
2021 04 15.292567 11 39 33.015 +13 39 50.72 21.69 w F51 – Pan-STARRS 1, Haleakala MPS 1400905
2022 05 09.371788 14 18 25.544 -19 14 05.74 21.36 w F52 – Pan-STARRS 2, Haleakala MPS 1596336
2022 05 09.383801 14 18 24.936 -19 14 04.33 21.60 w F52 – Pan-STARRS 2, Haleakala MPS 1596336
2022 05 09.395810 14 18 24.346 -19 14 03.14 21.50 w F52 – Pan-STARRS 2, Haleakala MPS 1596336